Location: Sternwarte der Astronomie-Werkstatt "Sterne ohne Grenzen"
(50.5725°N, 6.4408°E)
Time: 09:39:46
(UTC+02:00)

ISS - Visible Passes

Search period start: 19 April 2025 00:00
Search period end: 29 April 2025 00:00
Orbit: 414 x 421 km, 51.6° (Epoch: 18 April)

Date Brightness Start Highest point End Pass type
(mag) Time Alt. Az. Time Alt. Az. Time Alt. Az.
21 Apr -1.2 05:18:28 10° S 05:20:15 14° SE 05:22:04 10° ESE visible
23 Apr -2.3 05:17:42 12° SSW 05:20:18 28° SSE 05:23:13 10° E visible
24 Apr -1.9 04:31:17 17° SSE 04:32:14 20° SE 04:34:44 10° E visible
25 Apr -1.3 03:44:48 13° SE 03:44:48 13° SE 03:45:52 10° ESE visible
25 Apr -3.4 05:17:41 14° SW 05:20:23 54° SSE 05:23:39 10° ENE visible
26 Apr -3.0 04:31:07 29° SSW 04:32:10 38° SSE 04:35:19 10° E visible
27 Apr -2.3 03:44:29 26° SE 03:44:29 26° SE 03:46:52 10° E visible
27 Apr -3.8 05:17:23 12° WSW 05:20:28 87° SSE 05:23:49 10° ENE visible
28 Apr -1.0 02:57:48 12° E 02:57:48 12° E 02:58:13 10° E visible
28 Apr -3.8 04:30:41 30° WSW 04:32:08 70° SSE 04:35:28 10° ENE visible
